Dewpoint
7 8 10 11 12 11 11 12 13 12 13 13 10 10 9 11 8 7 6 4 3 3 6 4 6 9 8 9 11 12 13 16 17 16 17 20 18 21 23 24 24 24 24 25 26 27 28 29 29 31 32 34 34 34 34 35 36 37 37 38 38 38 38 37 36 36 35 36 37 38 38 39 40 40
6 8 8 9 10 11 11 13 12 11 13 12 12 11 12 12 10 10 7 6 3 2 3 5 3 7 8 8 8 9 12 18 18 15 18 18 16 20 21 20 21 22 23 23 23 24 26 28 29 30 32 33 34 34 35 36 37 37 37 38 38 37 36 36 36 36 35 36 37 38 38 38 39 39
-0 3 6 7 9 10 11 11 11 11 13 11 11 11 13 14 13 12 9 8 6 3 2 4 5 4 7 8 9 8 10 15 17 15 17 17 18 20 17 19 20 21 22 21 21 22 24 26 27 28 30 32 33 34 34 35 35 36 36 37 37 36 35 36 36 35 34 35 36 36 36 37 38 38
-3 -1 1 3 6 8 11 11 11 11 11 12 12 13 13 13 14 13 12 10 8 5 4 3 5 5 5 7 7 9 9 12 21 16 16 14 19 15 12 18 19 20 20 20 20 23 25 25 27 28 29 30 31 32 33 34 35 35 36 36 35 34 34 34 34 35 35 36 36 36 36 37 38 39
-6 -5 -2 1 2 7 9 12 13 12 11 12 13 14 13 12 14 14 13 11 10 7 6 5 5 5 5 5 6 7 7 8 11 17 16 13 13 11 11 12 17 18 18 18 19 20 22 22 23 25 27 29 31 32 32 33 34 36 35 34 34 34 34 35 34 34 34 35 36 36 37 38 39 39
-5 -3 -4 -4 -4 3 8 12 11 11 12 12 13 13 14 13 14 13 13 12 10 9 6 6 5 5 5 4 7 6 6 6 9 11 14 12 12 10 9 8 8 16 17 17 18 20 21 22 24 25 26 27 29 30 31 31 33 33 32 31 31 32 33 33 32 32 33 34 35 35 36 37 39 40
-8 -5 -2 -3 -3 1 5 8 10 13 15 14 14 14 14 14 13 12 14 12 11 10 8 7 6 5 5 4 4 5 5 6 6 6 9 11 10 9 9 6 6 14 17 18 19 20 20 21 23 25 25 25 27 29 30 30 29 29 29 29 29 29 30 30 30 32 32 32 33 34 35 36 38 39
-8 -3 -1 -1 -1 -0 3 5 4 7 13 14 14 14 14 14 14 13 12 14 12 11 9 10 7 6 6 5 5 5 5 5 5 5 5 7 8 8 8 7 6 10 17 17 18 18 19 20 22 23 24 24 25 26 26 26 26 27 27 27 27 28 28 29 29 30 30 31 32 33 34 35 37 37
-8 -5 -2 -1 2 3 5 10 11 11 11 13 14 14 13 13 14 14 14 13 13 11 10 9 10 7 6 6 6 5 5 5 4 4 4 4 5 5 6 6 6 13 16 17 17 17 19 19 19 20 22 23 23 24 25 26 26 26 26 26 26 27 28 28 29 29 29 29 30 31 32 33 34 34
-8 -6 -6 -7 -3 3 5 6 6 9 12 14 14 14 14 13 14 13 13 13 12 12 10 10 8 10 9 8 6 6 6 5 5 5 5 5 5 5 5 5 6 6 5 5 5 10 13 14 16 18 19 21 22 23 24 25 25 25 25 26 26 26 27 27 28 28 28 29 29 30 31 32 33 33
-8 -7 -6 -4 -2 1 3 5 7 9 10 13 14 14 14 14 14 13 12 12 12 11 10 10 9 8 8 7 6 6 7 6 6 4 4 5 5 5 5 6 7 5 5 9 13 11 11 14 15 17 20 21 22 23 23 23 24 24 25 26 26 26 26 27 27 27 27 28 29 29 30 31 32 33
-5 -5 -5 -4 -3 -3 -2 0 4 9 9 10 12 14 14 14 13 12 11 11 10 10 9 8 8 8 7 7 6 8 6 6 7 5 4 3 4 5 5 5 5 7 8 4 4 9 11 11 12 16 17 18 19 19 20 20 20 21 23 24 25 25 25 25 25 26 27 28 29 29 30 32 32 32
-4 -4 -3 -2 -2 -1 1 1 2 5 8 10 11 13 14 13 12 12 11 10 9 8 8 7 8 7 6 6 6 5 6 5 5 7 8 4 3 3 3 4 4 4 3 4 6 6 5 5 6 6 6 8 13 14 18 19 19 21 22 23 25 26 27 26 27 27 27 28 29 30 31 32 32 32
-5 -6 -5 -4 -1 0 1 2 3 6 9 11 11 11 13 13 12 11 10 9 8 8 6 6 6 5 5 5 6 6 6 7 6 5 6 6 5 5 5 4 4 4 3 3 3 4 6 6 7 6 7 7 11 12 13 14 17 20 23 25 26 27 27 27 26 27 28 28 29 30 31 31 32 33
-6 -5 -5 -5 -3 -1 0 -1 2 4 7 10 12 13 15 15 12 10 10 9 8 6 6 5 5 5 4 5 6 6 6 7 7 6 6 6 6 5 4 3 4 4 3 2 2 3 5 7 7 8 7 8 8 10 12 18 21 23 26 27 26 27 27 27 27 28 28 29 29 30 31 32 32 33
-6 -6 -5 -5 -4 -3 -2 -0 2 5 7 8 10 13 15 16 18 17 11 9 7 6 5 4 4 4 4 4 5 5 5 5 6 7 7 6 6 5 4 2 2 2 4 2 5 4 4 6 8 8 10 9 9 10 16 21 24 26 26 26 26 27 27 27 28 28 29 29 29 30 30 31 33 34
-5 -5 -5 -5 -4 -3 1 1 2 5 6 9 11 11 13 16 18 19 18 16 10 8 6 5 4 4 4 4 4 5 5 7 5 5 5 5 5 5 3 2 2 5 6 4 6 4 3 5 7 9 11 12 12 13 19 23 25 26 26 26 27 27 27 28 28 29 29 29 29 29 30 31 33 34
-4 -5 -5 -5 -5 -3 -1 1 2 3 5 7 9 10 12 15 16 17 19 18 15 11 7 6 4 5 5 4 5 7 8 6 4 4 4 5 4 4 4 5 5 6 6 5 5 5 5 7 7 9 10 14 15 17 19 23 26 25 25 26 26 27 27 28 28 28 28 29 29 29 29 30 32 34
-4 -4 -4 -4 -4 -3 -3 -3 1 1 3 6 7 10 12 15 16 15 16 16 15 12 7 7 6 6 7 6 6 7 8 7 6 6 5 5 5 5 3 4 3 5 8 8 7 3 6 7 8 9 10 12 14 18 20 22 24 24 25 25 26 27 28 28 28 28 28 28 28 28 28 29 30 33
-3 -3 -3 -3 -3 -2 -1 2 9 8 5 6 8 10 12 14 15 14 16 18 18 14 10 8 7 7 7 10 6 7 6 6 6 4 2 2 1 0 0 0 0 2 5 8 6 5 6 8 8 9 11 13 14 15 17 20 21 24 25 25 26 26 27 28 27 27 27 27 27 27 28 29 29 31
-3 -3 -3 -2 -3 -2 -1 5 11 12 11 7 8 9 11 13 13 12 14 17 19 19 17 15 14 14 14 14 15 15 14 8 7 3 1 -0 1 -0 -1 -0 0 2 3 7 8 6 6 9 11 12 14 13 13 14 17 16 19 22 24 25 26 27 28 28 28 29 30 30 29 29 29 29 28 30
-3 -2 0 1 -0 0 1 9 12 12 8 7 9 10 11 11 11 11 11 13 15 18 19 19 17 16 15 15 15 16 16 16 11 2 0 1 1 -0 -0 -0 1 2 1 5 8 8 7 10 12 12 13 12 15 16 17 15 17 20 21 24 25 26 28 29 29 30 31 31 30 29 28 29 30 33
-2 -2 0 1 1 2 4 10 13 14 12 9 10 11 10 9 9 10 10 10 11 13 15 16 16 15 15 14 14 15 16 16 13 4 4 3 1 0 1 1 -1 2 3 7 11 7 8 10 12 12 10 10 13 16 16 16 18 19 19 19 20 24 26 28 29 30 31 31 31 30 30 29 30 32
-2 -2 -1 -0 4 9 10 12 13 14 14 10 11 11 9 8 8 10 9 9 9 10 11 13 15 16 16 15 15 15 15 16 13 6 5 4 3 2 2 1 2 3 5 10 11 9 8 10 11 11 11 9 10 12 15 16 18 19 19 19 20 22 24 25 26 28 29 30 31 31 30 30 30 32
-2 -2 -1 -0 3 7 11 12 13 15 14 15 12 11 8 8 9 11 8 8 10 8 8 9 10 11 12 14 15 14 14 15 13 8 6 6 6 4 2 2 3 5 7 10 15 11 9 9 10 10 9 11 11 11 13 15 17 18 18 19 20 20 21 23 25 25 28 29 30 31 31 32 33 33
-1 -1 -1 1 3 5 10 12 14 14 15 16 12 10 15 15 16 10 6 6 7 6 6 6 7 8 9 9 14 13 13 13 12 9 6 6 6 6 5 4 3 3 6 10 18 12 11 10 11 9 10 11 11 12 12 13 15 17 18 19 20 21 21 23 24 26 26 27 28 29 30 32 32 33
-0 0 1 2 4 8 11 13 13 13 15 16 13 16 18 17 15 9 4 5 5 5 5 5 5 5 7 8 11 14 13 14 13 11 7 7 7 6 6 7 8 9 11 12 16 15 13 11 11 10 10 11 11 11 12 12 13 15 17 19 20 20 21 23 25 25 26 27 27 29 29 30 30 31
2 2 3 3 10 11 12 13 13 13 14 15 18 18 18 15 14 6 5 4 4 4 4 4 3 3 4 7 9 13 14 13 14 12 10 7 7 7 6 9 10 12 15 15 15 15 14 12 12 13 12 12 10 10 10 12 13 14 15 18 19 20 21 23 25 25 26 26 26 27 27 27 28 29
6 8 12 12 12 12 12 13 12 12 14 16 19 17 16 15 10 5 4 4 4 4 3 3 3 3 4 5 9 13 15 15 15 14 11 8 7 7 8 8 9 10 14 14 15 14 14 13 12 13 12 13 11 12 12 12 13 14 16 16 16 18 20 23 24 24 24 25 25 25 25 26 27 28
7 10 12 11 9 9 10 8 10 10 11 14 16 17 16 14 9 6 4 4 4 4 4 4 3 4 3 5 10 13 14 14 14 14 12 10 9 9 9 10 10 13 15 15 15 14 15 14 14 13 12 12 13 12 12 13 13 15 16 16 17 18 20 21 23 23 23 24 24 25 25 26 26 27
3 5 7 7 8 8 10 10 10 11 12 13 14 15 15 14 9 7 6 5 5 4 4 4 4 6 6 8 10 11 11 12 13 13 12 12 11 11 11 12 12 12 13 15 15 15 15 14 14 13 12 12 13 13 14 15 15 14 15 16 17 16 19 20 22 22 22 23 24 24 25 25 26 27
3 5 8 8 7 7 8 8 9 11 12 13 13 13 15 13 10 9 9 8 6 5 5 4 4 6 9 9 9 10 10 10 10 11 12 12 11 10 10 10 9 10 10 11 12 14 14 14 14 13 13 13 13 14 15 14 14 14 15 16 16 18 19 19 21 21 22 23 22 23 24 24 25 26
6 5 7 6 6 6 6 7 8 9 9 12 12 13 13 12 10 9 8 6 6 6 6 5 5 6 9 9 9 9 8 9 8 9 10 11 10 10 10 9 9 9 9 9 9 10 10 13 14 14 13 14 16 16 14 13 14 16 15 14 15 17 18 20 21 20 21 22 21 22 23 24 25 25
3 4 7 6 5 6 6 7 7 8 9 11 11 12 13 12 10 9 9 8 7 7 7 7 7 7 7 8 9 8 8 8 8 9 10 9 9 9 8 8 9 9 9 9 9 9 9 10 12 13 14 15 16 17 16 14 13 14 15 14 15 16 18 20 21 20 19 20 20 21 21 22 24 25
-1 1 5 6 6 6 7 8 7 8 9 10 10 11 12 11 11 11 10 9 9 8 8 8 8 8 8 8 8 8 7 7 8 8 10 9 9 9 8 8 8 10 10 9 9 10 10 11 11 12 14 14 14 14 17 18 15 15 14 14 15 15 17 20 20 20 20 20 20 20 20 21 22 24
-8 -4 0 5 7 8 8 8 8 9 9 10 10 10 11 11 12 12 10 10 10 9 9 8 9 9 8 8 8 8 8 8 8 8 9 9 9 9 9 9 10 10 10 10 11 12 12 13 13 11 10 11 8 6 10 16 18 16 14 13 14 16 18 20 21 20 20 20 20 20 19 19 20 23
-11 -9 -7 -3 2 6 6 6 6 6 8 8 9 9 10 10 11 12 13 13 10 10 10 9 9 9 9 8 8 9 9 9 9 9 9 9 9 10 10 10 11 11 11 11 12 13 14 13 12 11 11 8 7 7 9 6 13 19 16 15 16 16 17 19 20 20 20 21 20 20 20 20 20 22
-14 -13 -12 -10 -7 -5 1 5 6 6 7 7 8 9 9 10 11 12 14 12 11 11 11 10 10 10 9 9 8 9 10 11 11 10 10 10 10 11 10 11 12 12 12 12 12 14 14 12 11 13 11 8 8 6 9 10 10 17 19 18 17 17 17 19 19 19 19 20 20 21 21 20 21 21
-16 -15 -15 -14 -12 -11 -9 -5 -1 3 4 5 6 7 8 8 9 12 11 12 12 11 11 11 10 10 10 10 10 10 11 12 12 11 11 11 11 12 12 12 13 14 14 13 13 14 14 12 12 13 11 6 7 8 10 10 11 14 17 20 19 18 17 19 19 19 19 18 18 19 20 21 22 22
-16 -16 -15 -15 -15 -14 -13 -12 -9 -6 -3 1 4 7 8 9 9 11 12 13 12 12 11 11 11 11 10 10 11 12 12 12 12 12 12 12 12 13 13 13 13 14 13 13 13 13 14 13 14 14 12 10 10 11 10 11 10 8 14 19 21 20 17 17 19 18 17 17 17 17 17 19 18 19
-17 -18 -17 -16 -16 -16 -15 -14 -13 -11 -9 -5 -1 5 9 10 10 11 13 14 13 12 12 12 12 11 11 11 12 12 11 11 12 12 12 12 12 12 13 14 13 14 13 13 13 13 14 15 16 17 14 13 13 14 15 14 14 14 16 18 21 22 20 18 20 20 18 17 16 17 17 17 17 17
-19 -19 -17 -17 -17 -16 -16 -15 -15 -14 -12 -10 -6 -2 5 10 11 13 14 14 13 13 12 12 12 11 11 12 12 11 11 11 11 11 11 11 11 11 13 13 13 13 13 12 13 13 14 12 16 17 16 17 16 14 12 13 13 14 15 17 20 22 23 23 23 22 20 19 19 18 17 15 13 16
-20 -20 -19 -17 -17 -16 -16 -16 -15 -14 -14 -12 -10 -6 1 8 10 12 14 14 13 12 12 12 12 11 11 12 12 11 11 10 10 11 11 12 12 12 12 12 13 12 12 11 11 11 11 12 16 17 17 16 15 14 13 14 14 15 16 17 19 21 23 25 25 25 24 24 22 20 20 18 15 15
-20 -20 -20 -19 -18 -17 -16 -16 -16 -15 -14 -13 -11 -8 0 7 9 11 13 13 13 12 12 12 11 11 11 11 11 11 10 10 10 11 11 11 11 11 11 11 11 10 10 11 11 12 12 14 16 17 16 15 13 13 15 14 14 15 16 17 19 20 20 20 19 20 22 25 25 25 25 24 24 22
-20 -20 -20 -20 -19 -19 -17 -16 -16 -15 -15 -14 -13 -11 -5 1 5 9 11 12 12 12 11 11 11 11 10 10 10 9 8 10 10 9 10 10 10 10 10 11 11 11 11 11 12 11 12 13 14 16 16 16 14 14 15 14 13 13 15 17 18 18 18 17 17 18 19 21 24 25 24 25 24 24